{"data":{"norad_id":65073,"intl_designator":"2025-165T","name":"STARLINK-34781","alt_names":[],"object_type":"PAYLOAD","status":"ACTIVE","operator":null,"country":"US","launch_date":"2025-07-31","launch_site_code":"AFWTR","launch_vehicle":null,"mission":null,"orbit_class":"UNKNOWN","rcs_meters":null,"size_class":null,"mass_kg":null,"dimensions":null,"purposes":["comms"],"wikipedia_slug":null,"has_3d_model":false,"image_url":null,"decayed_at":null,"tle_current":{"epoch":"2026-09-20T22:00:03.000096Z","epoch_age_seconds":84191,"freshness":"FRESH","line1":"1 65073U 25165T   26263.91670139 -.00028935  00000+0 -89700-3 0  9990","line2":"2 65073  97.2853 335.1102 0001606  92.2470  48.5142 15.33456908  5743","mean_motion":15.33456908,"eccentricity":0.0001606,"inclination_deg":97.2853,"raan_deg":335.1102,"arg_perigee_deg":92.247,"mean_anomaly_deg":48.5142,"bstar":-0.000897,"rev_number":574,"period_min":93.905475431853,"perigee_km":464.40865553137,"apogee_km":466.60683422342,"semimajor_km":6843.6447448774,"source":"CELESTRAK","updated_at":"2026-09-21T09:00:35.501593Z"}}}